Home > Weather > Ann Arbor > Past weeks

Flag for USA Past Weather in Ann Arbor, Michigan, USA — Yesterday and Last 2 Weeks

Now
50 °F

Clear.


Feels Like: 50 °F
Forecast: 49 / 79 °F
Wind: No wind

Location: Ann Arbor Municipal Airport

Current Time: Jun 29, 2016 at 1:30:20 AM

Latest Report: Jun 29, 2016 at 12:53 AM


Visibility: 10 mi

Pressure: 30.07 "Hg

Humidity: 93%

Dew Point: 48 °F

Location of Ann ArborLocation

Past Weather in Ann Arbor — Graph

°F

Ann Arbor Temperature Yesterday

Maximum temperature yesterday: 70 °F (at 1:53 PM)
Minimum temperature yesterday: 58 °F (at 11:53 PM)
Average temperature yesterday: 66 °F

High & Low Weather Summary for the Past Weeks

 TemperatureHumidityPressure
High91 °F (Jun 27, 2:53 PM)100% (Jun 25, 6:53 AM)30.27 "Hg (Jun 25, 6:53 AM)
Low47 °F (Jun 25, 5:53 AM)26% (Jun 27, 3:53 PM)29.62 "Hg (Jun 16, 2:53 AM)
Average70 °F66%29.98 "Hg
* Reported Jun 13 11:53 PM — Jun 28 11:53 PM, Ann Arbor, Weather by CustomWeather, © 2016

Note: Actual official high and low records may vary slightly from our data, if they occured in-between our weather recording intervals... More about our weather records

Advertising

Ann Arbor Weather History for the Previous 24 Hours

Scroll right to see more
 ConditionsComfort  
Time TempWeatherWind HumidityBarometerVisibility
11:53 PM
Tue, Jun 28
58 °FClear.5 mph78%30.07 "Hg10 mi
10:53 PM62 °FOvercast.6 mph67%30.07 "Hg10 mi
9:53 PM63 °FOvercast.6 mph70%30.06 "Hg10 mi
8:53 PM63 °FOvercast.8 mph68%30.06 "Hg10 mi
7:53 PM64 °FOvercast.9 mph65%30.07 "Hg10 mi
6:53 PM65 °FOvercast.9 mph66%30.06 "Hg10 mi
5:53 PM67 °FOvercast.14 mph61%30.06 "Hg10 mi
4:53 PM69 °FOvercast.16 mph57%30.06 "Hg10 mi
3:53 PM70 °FScattered clouds.10 mph55%30.05 "Hg10 mi
2:53 PM70 °FPassing clouds.13 mph55%30.06 "Hg10 mi
1:53 PM70 °FScattered clouds.13 mph57%30.06 "Hg10 mi
12:53 PM69 °FPartly sunny.12 mph59%30.06 "Hg10 mi
11:53 AM68 °FPartly sunny.8 mph59%30.05 "Hg10 mi
10:53 AM64 °FOvercast.13 mph63%30.05 "Hg10 mi
9:53 AM67 °FSunny.14 mph59%30.05 "Hg10 mi
8:53 AM65 °FOvercast.9 mph66%30.04 "Hg10 mi
7:53 AM64 °FCloudy.10 mph68%30.03 "Hg10 mi
6:53 AM64 °FMostly cloudy.7 mph70%30.01 "Hg10 mi
5:53 AM65 °FOvercast.10 mph70%30.00 "Hg10 mi
4:53 AM65 °FOvercast.7 mph73%29.98 "Hg10 mi
3:53 AM66 °FPassing clouds.5 mph70%29.98 "Hg10 mi
2:53 AM66 °FClear.8 mph70%29.98 "Hg10 mi
1:53 AM66 °FClear.7 mph70%29.98 "Hg10 mi
Weather by CustomWeather, © 2016

See weather overviewHow to use our weather pages